Temperature
19 19 19 19 19 19 18 19 18 19 19 18 18 18 18 18 18 18 18 18 18 18 18 18 18 18 18 18 18 18 18 18 18 18 18 18 18 18 18 18 17 17 18
19 19 19 19 19 19 18 18 18 19 19 18 18 18 18 18 18 18 18 19 18 18 18 18 18 18 18 18 18 18 18 18 18 18 18 18 18 18 17 17 17 17 17
19 19 19 19 19 19 18 18 19 19 19 18 18 18 18 18 18 18 18 18 18 18 18 18 18 18 18 18 18 18 18 18 18 18 18 18 17 17 17 17 17 17 17
19 19 19 19 19 19 19 19 19 19 19 19 19 18 18 18 18 18 18 18 18 18 18 18 18 18 18 18 18 18 18 18 18 18 17 17 17 17 17 17 17 17 17
19 19 19 19 19 19 19 18 18 19 19 19 19 19 18 18 18 18 18 18 18 18 18 18 18 18 18 18 18 18 18 18 18 18 18 17 17 17 17 17 17 17 17
19 19 20 19 19 19 19 19 19 19 19 19 19 19 18 18 18 18 18 18 18 18 18 18 18 18 18 18 18 18 18 18 18 17 17 17 17 18 18 17 17 17 17
20 20 20 20 19 19 19 19 19 19 19 19 19 19 19 18 18 18 18 18 18 18 18 18 18 18 18 18 18 18 18 18 18 17 17 17 18 18 18 17 17 17 17
20 20 20 20 20 19 19 19 19 19 19 19 19 19 19 19 18 18 18 18 18 18 18 18 18 18 18 18 18 18 18 18 18 17 17 17 18 18 18 17 17 17 17
20 20 20 20 20 19 19 19 19 19 19 19 19 19 19 19 18 18 18 18 18 18 18 18 18 18 18 18 18 18 18 18 18 17 17 18 18 18 18 17 17 17 17
21 20 20 19 19 19 19 19 19 19 19 19 19 19 19 18 18 18 18 18 18 18 18 18 18 18 18 18 18 18 18 18 18 18 18 18 18 18 18 17 17 17 17
21 20 20 20 20 19 19 19 19 19 19 19 19 19 19 18 18 18 18 18 18 18 18 18 18 18 18 18 18 18 18 18 18 18 18 18 18 18 17 17 17 17 17
21 20 20 20 20 20 19 19 19 19 19 19 19 18 18 18 18 18 18 18 18 18 18 18 18 18 18 18 18 18 18 18 18 18 18 18 18 18 17 17 17 17 17
21 21 20 20 20 20 19 19 19 19 19 19 19 19 19 19 18 18 18 18 18 18 18 18 18 18 18 18 18 18 18 18 18 18 18 18 18 18 17 17 17 17 17
21 21 20 20 20 19 19 19 19 19 19 19 19 19 19 19 19 18 18 18 18 18 18 18 18 18 18 18 18 18 18 18 18 18 18 18 18 17 17 17 17 17 17
21 21 20 20 20 19 19 19 19 19 19 19 19 19 19 19 18 18 18 18 18 18 18 18 18 18 18 18 18 18 18 18 18 18 18 17 17 17 17 17 17 17 17
21 21 20 20 20 19 19 19 19 19 19 19 19 19 19 18 18 18 18 18 18 18 18 18 18 18 18 18 18 18 18 18 18 18 17 17 17 17 17 17 17 17 17
21 21 20 20 20 20 19 19 19 19 19 19 19 19 18 18 18 18 18 18 18 18 18 18 18 18 18 18 18 18 18 18 17 17 17 17 17 17 17 17 17 17 17
21 21 20 20 20 20 20 19 19 19 19 19 19 19 18 18 18 18 18 18 18 18 18 18 18 18 18 18 18 18 17 17 17 17 17 17 17 17 17 17 17 17 17
21 21 20 20 20 20 20 19 19 19 19 19 19 19 18 18 18 18 18 18 18 18 18 18 18 18 18 18 18 18 18 17 17 17 17 17 17 17 17 17 17 17 17
21 21 20 20 20 20 19 19 19 19 19 19 19 19 19 18 18 18 18 18 18 18 18 18 18 18 18 18 18 18 18 17 17 17 17 17 17 16 16 16 16 16 16
21 21 20 20 20 20 20 19 19 19 19 19 19 19 19 19 18 18 18 18 18 18 18 18 18 18 18 18 18 18 17 17 17 17 17 17 17 16 16 16 16 16 16
22 21 21 20 20 20 20 20 19 19 19 19 19 19 19 19 18 18 18 18 18 18 18 18 18 18 18 18 18 18 18 17 17 17 17 17 17 17 16 16 16 16 16
22 21 21 21 20 20 20 20 20 19 19 19 19 19 19 18 18 18 18 18 18 18 18 18 18 18 18 18 18 18 18 18 17 17 17 17 17 16 16 16 16 16 16
22 22 21 21 21 20 20 20 20 19 19 19 19 19 19 18 18 18 18 18 18 18 18 18 18 18 18 18 18 18 18 18 18 17 17 17 17 16 16 16 16 16 16
23 22 21 21 21 21 20 20 20 19 19 19 19 19 19 19 18 18 18 18 18 18 18 18 18 18 18 18 18 18 18 18 18 18 17 17 16 16 16 16 16 15 15
23 22 22 21 21 21 20 20 20 20 19 19 19 19 19 19 19 18 18 18 18 18 18 18 18 18 18 18 18 18 18 18 18 18 17 17 16 16 16 16 15 15 15
Wind_Speed
8 9 10 11 12 12 12 12 12 12 12 12 12 12 12 12 12 12 12 12 12 13 14 15 14 15 15 16 17 18 18 18 17 17 16 16 15 14 14 13 12 12 14
9 10 11 10 11 12 12 11 11 12 12 12 12 12 12 12 12 12 12 12 12 13 14 15 15 15 15 16 17 17 17 17 16 16 16 15 14 13 13 12 11 12 14
10 10 11 11 11 12 11 11 11 11 11 11 12 12 12 12 12 12 12 12 13 14 14 14 14 14 15 16 16 16 17 16 16 16 15 13 13 13 13 13 14 14 14
11 11 11 11 11 11 11 11 11 11 11 11 12 12 13 13 12 12 13 13 14 14 14 14 13 13 15 15 15 15 15 15 15 14 11 13 13 14 13 13 13 13 13
11 13 12 12 12 11 11 11 11 11 10 11 11 12 12 12 12 12 13 13 13 13 13 13 14 13 14 14 13 13 13 13 13 11 10 12 13 14 14 13 13 12 12
13 14 13 12 12 11 11 11 11 10 10 10 11 11 11 11 12 12 13 13 13 13 14 14 13 13 14 13 12 11 11 10 10 8 10 12 13 14 14 13 12 11 11
13 13 13 12 11 10 10 10 10 10 10 10 10 10 11 11 11 12 12 12 13 13 13 14 13 13 12 12 11 9 8 8 7 9 10 11 13 15 14 13 12 11 11
11 12 12 12 11 11 10 9 9 9 9 9 9 10 10 10 11 11 11 11 11 12 12 13 13 12 11 11 9 8 6 5 6 9 9 11 15 14 13 12 11 11 10
10 10 10 11 10 10 9 9 8 9 8 9 9 9 9 10 10 11 11 10 11 12 12 12 11 11 11 10 8 6 4 3 3 7 10 11 14 13 12 11 11 10 10
8 8 8 8 9 9 9 8 7 7 7 7 8 9 9 9 9 10 11 10 11 11 12 11 11 10 9 8 7 5 3 2 5 9 10 11 13 13 12 11 10 10 9
7 6 7 7 6 7 9 9 7 6 5 5 6 7 6 6 8 8 10 11 10 10 10 10 9 9 8 7 5 4 2 3 7 10 10 13 13 12 11 10 9 9 8
6 6 6 6 5 5 6 7 6 6 5 5 5 4 4 5 6 9 10 10 10 9 9 9 8 8 7 5 5 4 2 4 9 10 12 15 13 11 10 9 8 8 7
6 6 7 7 5 5 5 4 3 4 5 5 6 5 5 4 5 7 5 6 7 7 5 8 6 5 5 4 4 4 3 5 8 10 12 14 12 10 9 8 7 7 7
7 7 7 7 6 5 4 3 3 3 3 4 5 5 4 3 3 4 3 3 4 4 4 4 3 3 4 4 5 4 5 6 9 10 12 13 12 10 8 7 6 6 6
7 8 7 6 6 5 3 1 3 4 3 5 5 5 4 3 3 3 2 2 3 4 4 3 4 3 3 3 4 6 6 7 8 11 10 12 11 9 7 6 6 6 6
7 8 7 6 6 4 2 2 2 4 4 4 4 5 5 4 4 2 2 2 3 4 4 3 5 4 2 3 5 6 5 6 7 9 10 10 10 9 7 6 6 6 6
7 7 7 7 7 4 2 2 3 3 4 3 5 6 5 5 4 2 2 2 3 4 4 4 4 3 3 3 4 5 4 5 5 6 8 8 8 7 7 6 6 6 6
8 6 4 5 7 5 3 2 2 3 3 4 4 5 5 5 4 2 2 2 3 3 3 3 3 3 3 3 3 3 3 4 4 5 7 8 7 7 7 7 6 6 5
8 7 4 4 5 5 4 2 3 2 2 3 4 4 4 4 4 3 2 3 3 2 2 3 4 3 3 3 3 2 2 3 3 4 4 6 7 8 7 7 6 5 5
8 7 5 4 4 4 3 2 2 2 2 3 4 4 4 3 3 2 3 3 2 2 3 3 3 3 2 2 2 3 2 3 3 2 2 4 5 7 7 7 6 5 4
8 7 5 5 4 2 2 1 2 2 2 2 3 5 4 3 2 2 3 3 2 3 3 3 2 3 3 2 2 2 2 2 3 3 2 2 3 5 6 7 6 5 5
9 7 6 5 5 3 3 2 1 2 2 3 3 4 4 3 2 2 3 2 2 3 2 2 1 1 1 2 2 2 2 1 1 2 2 2 2 4 4 6 6 5 5
10 8 7 6 5 4 3 3 2 2 1 2 4 3 3 3 3 2 3 2 1 2 2 2 1 1 1 1 1 1 1 2 2 2 2 2 2 2 3 4 4 4 4
10 9 7 7 5 4 3 2 3 3 2 3 3 3 3 2 3 3 2 2 1 1 1 2 2 1 2 1 1 1 1 1 1 2 1 2 2 2 2 2 4 5 5
10 10 9 8 6 5 3 3 2 2 2 3 3 3 3 2 2 2 2 2 1 0 1 0 0 0 1 1 1 1 1 1 1 2 2 2 2 1 1 2 3 4 5
10 10 10 9 7 6 5 4 3 2 1 2 2 2 2 2 2 2 2 2 1 1 1 1 0 1 1 1 2 1 1 1 2 2 2 3 2 2 2 2 3 4 5
Wind_Direction
86 85 71 62 59 60 62 65 66 69 70 71 73 76 84 88 90 92 95 96 101 106 114 121 123 125 129 131 132 135 135 134 135 134 133 132 129 127 127 126 126 121 122
93 91 80 68 66 66 63 65 69 69 70 71 73 77 84 88 92 92 94 96 99 103 109 115 118 121 127 131 133 135 136 137 137 139 138 133 130 129 129 129 124 122 125
95 94 88 74 71 73 67 68 71 71 71 74 75 79 84 87 91 92 93 97 101 104 108 111 115 119 126 131 136 138 141 144 147 146 144 137 133 133 130 127 124 130 129
101 94 86 81 74 71 67 70 72 73 73 77 80 81 87 88 88 88 94 98 102 104 103 108 113 119 128 131 137 141 146 151 152 151 152 142 140 139 134 131 132 135 134
98 94 90 86 78 72 68 69 71 74 76 80 84 86 88 90 88 91 97 99 104 107 106 106 109 112 124 129 135 141 146 152 154 153 145 135 133 140 139 139 141 141 139
101 96 95 91 82 73 67 68 71 76 79 83 86 88 91 93 92 94 96 97 102 107 109 107 111 111 118 123 129 135 142 151 154 152 141 136 136 144 145 146 145 144 145
103 104 104 99 89 81 73 70 73 79 84 87 92 95 97 97 98 97 99 100 104 108 110 111 109 116 121 125 129 137 146 147 159 140 134 134 136 145 147 148 145 144 146
105 106 109 106 99 92 84 80 82 86 92 94 97 100 105 107 105 100 98 101 105 111 114 115 115 118 125 130 137 147 155 156 138 136 131 125 133 139 142 141 143 144 145
103 110 117 120 114 105 97 94 101 95 99 103 107 111 113 117 115 109 104 105 110 115 119 120 122 124 130 137 143 152 167 168 130 130 128 128 137 142 145 144 145 147 146
99 107 110 116 127 126 120 116 114 109 110 116 124 129 128 126 124 120 113 110 115 121 125 129 130 130 135 142 150 163 181 184 131 115 113 130 143 146 146 146 148 147 147
101 106 109 108 122 126 122 124 133 126 125 133 131 139 139 130 131 129 122 125 124 126 132 137 140 141 144 149 160 168 179 152 124 113 115 126 135 140 142 144 147 149 154
107 108 101 89 92 99 99 117 124 119 121 115 107 118 131 122 123 119 131 139 135 132 135 146 152 156 156 151 159 176 183 127 113 112 121 131 132 136 141 148 152 154 158
117 104 96 87 74 76 85 98 104 106 109 103 90 84 86 89 100 107 132 142 142 144 142 138 154 148 141 137 135 148 132 107 111 113 125 130 131 134 142 149 151 155 157
113 102 96 92 82 69 68 81 102 101 101 95 87 80 87 84 77 92 102 116 132 123 118 118 113 102 106 110 117 113 106 96 102 108 123 126 126 130 135 142 150 158 163
117 108 99 93 80 73 62 51 95 94 92 96 90 81 77 77 73 78 76 71 97 99 107 109 100 82 77 80 91 92 81 90 103 112 120 128 131 131 133 145 154 160 162
125 116 118 113 102 87 84 64 80 99 94 100 104 93 90 93 89 81 83 86 89 101 104 106 111 104 91 87 84 86 83 87 93 110 124 135 138 138 140 148 159 161 164
121 116 126 126 120 115 95 82 101 100 109 100 97 88 83 94 105 101 81 94 99 102 101 92 96 109 115 98 95 103 100 93 98 110 126 135 143 148 146 146 153 157 160
123 118 122 123 123 124 109 73 59 71 79 88 96 101 94 90 94 105 101 101 114 116 116 116 106 107 98 92 96 102 111 108 111 122 126 131 137 144 151 149 145 152 157
128 129 127 106 118 124 125 122 116 98 78 80 86 91 100 99 93 109 105 105 127 120 114 116 110 115 122 120 128 131 121 126 132 122 120 129 136 137 141 158 155 145 160
136 132 129 125 113 126 136 136 121 113 104 101 94 87 82 91 89 98 106 107 113 101 92 92 114 123 130 146 142 125 126 130 130 126 126 116 126 134 136 141 155 163 157
139 133 131 132 128 129 109 112 118 122 118 113 110 106 103 91 84 75 91 97 91 99 111 122 127 147 157 143 121 120 121 130 132 126 126 116 119 129 130 136 146 152 162
144 143 146 146 146 154 147 157 146 124 133 129 105 106 110 99 82 91 102 118 119 122 121 138 154 161 178 157 170 175 159 138 126 146 142 132 126 109 118 135 136 137 139
156 157 156 149 150 160 159 158 141 134 154 111 113 121 118 118 104 72 80 81 117 136 147 167 168 180 205 211 175 193 170 165 155 125 134 123 121 119 107 102 120 131 134
163 160 149 149 151 158 164 171 175 155 149 128 129 130 130 113 114 113 101 89 43 88 133 184 173 214 205 234 198 198 171 132 152 135 125 126 126 109 103 94 94 102 105
168 162 155 150 154 162 170 162 182 160 155 137 137 139 140 135 123 120 121 123 138 156 145 116 80 237 254 264 262 213 187 180 206 171 166 160 122 110 120 95 88 95 97
170 165 160 153 157 164 173 171 170 175 151 132 140 141 163 148 140 120 131 130 144 159 135 140 255 220 261 296 297 284 240 202 182 182 176 172 158 135 112 95 100 103 103
Height
1504 1502 1501 1501 1500 1499 1499 1498 1498 1498 1497 1497 1497 1496 1497 1497 1498 1498 1499 1499 1499 1499 1499 1501 1504 1506 1509 1512 1515 1519 1521 1524 1527 1530 1533 1536 1538 1540 1542 1544 1546 1548 1549
1505 1504 1503 1502 1502 1501 1501 1500 1500 1499 1499 1499 1499 1498 1499 1499 1499 1500 1500 1500 1501 1501 1502 1504 1506 1508 1511 1514 1517 1520 1522 1525 1528 1531 1534 1537 1540 1542 1544 1545 1547 1548 1550
1506 1505 1504 1504 1503 1503 1502 1502 1502 1501 1501 1501 1501 1501 1501 1501 1501 1501 1502 1502 1503 1504 1505 1507 1509 1511 1513 1515 1518 1521 1524 1527 1530 1533 1536 1538 1540 1542 1544 1546 1548 1549 1551
1507 1506 1506 1505 1505 1504 1504 1503 1503 1503 1503 1503 1503 1503 1503 1503 1503 1503 1504 1504 1505 1507 1508 1510 1511 1513 1515 1517 1520 1523 1525 1528 1531 1534 1536 1539 1541 1543 1545 1546 1548 1550 1551
1509 1508 1507 1507 1506 1506 1505 1505 1505 1504 1504 1504 1505 1505 1505 1505 1506 1506 1506 1507 1508 1509 1511 1512 1514 1515 1516 1519 1522 1524 1527 1529 1532 1535 1537 1540 1541 1543 1545 1547 1548 1550 1552
1510 1509 1509 1508 1508 1507 1507 1506 1506 1506 1506 1506 1506 1507 1507 1508 1508 1508 1509 1510 1511 1512 1514 1515 1516 1518 1519 1522 1524 1526 1529 1531 1534 1536 1538 1540 1542 1543 1545 1547 1548 1550 1552
1512 1511 1511 1510 1509 1509 1508 1508 1507 1507 1507 1508 1508 1509 1510 1510 1511 1511 1512 1513 1514 1515 1517 1518 1519 1521 1523 1524 1526 1528 1531 1533 1535 1537 1539 1540 1542 1544 1545 1547 1548 1550 1552
1514 1513 1513 1512 1511 1511 1510 1510 1509 1509 1509 1510 1510 1511 1512 1513 1514 1514 1515 1516 1517 1518 1519 1521 1522 1524 1526 1527 1529 1531 1533 1535 1537 1538 1540 1541 1543 1544 1546 1547 1549 1550 1552
1516 1515 1515 1514 1514 1513 1513 1512 1512 1512 1512 1512 1513 1514 1514 1516 1517 1517 1518 1518 1519 1520 1522 1523 1525 1527 1528 1530 1532 1533 1535 1537 1538 1539 1540 1542 1543 1545 1547 1548 1549 1551 1552
1518 1518 1518 1517 1516 1515 1515 1515 1515 1515 1515 1515 1516 1517 1517 1518 1519 1520 1521 1521 1522 1523 1524 1526 1528 1529 1530 1532 1533 1535 1537 1538 1539 1540 1541 1542 1544 1546 1547 1548 1550 1551 1552
1519 1520 1520 1520 1519 1519 1518 1518 1518 1518 1518 1518 1519 1520 1521 1521 1522 1523 1524 1524 1525 1526 1527 1528 1530 1531 1533 1534 1536 1537 1538 1540 1541 1541 1542 1543 1545 1546 1547 1549 1550 1551 1552
1520 1521 1522 1521 1521 1521 1521 1521 1521 1520 1520 1521 1521 1522 1523 1524 1525 1526 1527 1527 1528 1528 1529 1530 1532 1533 1534 1536 1537 1539 1540 1541 1542 1543 1544 1545 1546 1547 1548 1549 1550 1551 1552
1522 1522 1523 1523 1523 1523 1523 1523 1523 1523 1523 1524 1524 1524 1525 1526 1527 1528 1528 1529 1530 1530 1531 1532 1533 1534 1536 1537 1539 1540 1541 1542 1543 1544 1545 1546 1547 1548 1548 1549 1550 1551 1552
1523 1524 1524 1524 1524 1524 1525 1525 1525 1525 1526 1526 1526 1527 1527 1528 1529 1529 1530 1531 1532 1532 1533 1534 1535 1536 1538 1539 1541 1542 1543 1544 1544 1545 1546 1547 1547 1548 1549 1549 1550 1551 1551
1524 1524 1525 1525 1525 1525 1526 1526 1527 1527 1527 1528 1528 1528 1529 1530 1530 1531 1531 1532 1533 1534 1535 1536 1537 1538 1539 1541 1542 1543 1544 1545 1546 1546 1547 1547 1548 1548 1549 1549 1550 1550 1551
1524 1525 1526 1526 1526 1526 1527 1527 1528 1529 1529 1530 1530 1530 1531 1531 1531 1532 1533 1533 1534 1535 1537 1538 1539 1540 1541 1542 1543 1544 1545 1546 1546 1547 1547 1548 1548 1549 1549 1549 1549 1550 1550
1525 1526 1527 1527 1527 1528 1528 1529 1530 1530 1531 1531 1531 1531 1532 1532 1533 1533 1534 1535 1536 1537 1538 1539 1540 1541 1543 1544 1545 1545 1546 1546 1547 1548 1548 1548 1548 1549 1549 1549 1549 1549 1550
1525 1526 1527 1529 1528 1529 1529 1530 1531 1532 1532 1533 1533 1533 1533 1534 1534 1535 1536 1536 1537 1538 1539 1540 1541 1542 1543 1544 1545 1546 1547 1547 1547 1548 1549 1549 1549 1549 1549 1549 1549 1549 1550
1526 1527 1528 1529 1529 1530 1530 1531 1532 1532 1533 1534 1534 1534 1535 1535 1536 1536 1537 1537 1539 1540 1541 1541 1542 1543 1544 1545 1545 1547 1547 1548 1549 1549 1549 1549 1549 1549 1549 1549 1550 1549 1549
1526 1527 1528 1529 1530 1531 1531 1532 1533 1533 1534 1534 1535 1535 1536 1536 1537 1537 1538 1538 1539 1540 1541 1542 1543 1543 1544 1545 1546 1547 1548 1549 1549 1549 1550 1550 1550 1550 1550 1550 1549 1549 1549
1525 1527 1528 1529 1530 1531 1532 1532 1533 1534 1535 1535 1536 1536 1536 1537 1537 1538 1539 1539 1540 1540 1541 1542 1543 1544 1545 1545 1546 1547 1548 1549 1549 1549 1550 1550 1550 1550 1550 1549 1549 1549 1549
1525 1526 1527 1528 1529 1531 1532 1533 1534 1535 1535 1536 1536 1537 1537 1537 1538 1538 1539 1539 1540 1540 1541 1542 1543 1543 1545 1546 1546 1547 1548 1549 1549 1549 1549 1549 1550 1550 1550 1549 1549 1549 1548
1524 1525 1527 1528 1529 1530 1532 1533 1534 1535 1536 1537 1537 1537 1537 1537 1538 1538 1539 1539 1540 1540 1541 1542 1542 1543 1544 1545 1546 1546 1547 1547 1548 1549 1549 1549 1549 1549 1549 1549 1549 1548 1548
1523 1524 1526 1527 1529 1530 1531 1533 1534 1535 1536 1537 1537 1537 1537 1538 1538 1538 1538 1539 1539 1540 1541 1541 1541 1542 1543 1544 1544 1545 1546 1546 1547 1548 1549 1549 1548 1548 1548 1548 1548 1547 1547
1522 1523 1525 1526 1528 1529 1530 1532 1533 1535 1536 1536 1537 1537 1537 1537 1538 1538 1538 1538 1539 1539 1540 1540 1540 1541 1542 1543 1543 1544 1545 1545 1546 1546 1547 1548 1548 1548 1547 1547 1547 1547 1546
1520 1522 1524 1525 1526 1528 1529 1531 1532 1533 1535 1535 1536 1537 1537 1537 1537 1537 1537 1538 1538 1538 1538 1539 1539 1540 1541 1541 1542 1543 1543 1544 1544 1545 1545 1545 1546 1546 1546 1546 1546 1546 1546